Location: Santa Barbara
(34.4500°N, 119.7700°W)
Time: 00:53:09
(UTC-07:00)

Cosmos 1626 Rocket - Visible Passes

Search period start: 30 August 2015 00:00
Search period end: 09 September 2015 00:00
Orbit: 604 x 632 km, 82.5° (Epoch: 29 August)

Date Brightness Start Highest point End Pass type
(mag) Time Alt. Az. Time Alt. Az. Time Alt. Az.
30 Aug 6.5 20:23:39 10° NW 20:26:52 19° W 20:29:57 10° SW visible
03 Sep 6.7 19:53:51 10° NW 19:57:03 19° W 20:00:04 10° SW visible
07 Sep 7.3 05:58:43 10° ESE 06:00:01 11° E 06:01:34 10° ENE visible
